ARIANE 5 DEB (SYLDA), 45247

Orbit data source: Space-Track

ARIANE 5 DEB (SYLDA), 45247 is space debris in HEO originally from a launch on Tue, 18 Feb 2020 UTC launched from the French Guiana (FRGUI). Debris objects in space refer to the collection of defunct objects orbiting the Earth. Examples of debris include non-operational satellites, rocket bodies, and fragments generated from explosions, collisions, or faulty payload assembly.

Loading next visibility...
ARIANE 5 DEB (SYLDA) details
Identifier
45247, 2020-013C
Orbit
HEO
Last TLE update16 hours ago
Origin
Flag of FRArianespace (FR)
ManufacturerADS/Bremen
MissionSpacecraft
Bus & MotorSYLDA 5, Unknown motor
Mass440 kg wet, 440 kg dry
Launch date (UTC)
2020-02-18 (5 years ago)
Launch vehicleUnknown
Launch site
French Guiana (FRGUI)
Object type
Payload
Rocket body
Debris
Shape & HBRCyl, Unknown HBR
Radar Cross Section27.391 m², Large (>1 m²)

Expand to show TLE details & history

TLE from 16 hours ago
0 ARIANE 5 DEB (SYLDA)
1 45247U 20013C   24360.96076888  .00086233  00000-0  12574-1 0  9997
2 45247   5.5542 180.4673 6552752  58.1158 349.5152  3.25918834 45555
Epoch: 2024-12-25T23:03Z
Definitive object data (Epoch: 2024-12-25T23:03:30.431Z)
Latitude-0.00007°
Longitude99.55383°
Altitude1,766.408 km
Speed8.782 km/s
True Right ascension12h 01m 30s
True Declination0° 00' 00"
Sunlit
Object was in daylight at TLE epoch
Visualization TLE readout
Latitude-2.2344°
Longitude-57.23567°
Altitude17,148.72 km
Speed3.624 km/s
Apparent Right ascension01h 47m 53s
Apparent Declination-10° 02' 22"
Sunlit
Object is in daylight
Visualization observer readout
Local Sidereal Time14:53:45
Azimuth30.587° NE
Elevation-56.733°
Doppler factor1
Orbital elements
Apogee altitude25,438.273 km
Perigee altitude247.894 km
Semi-major axis19,221.221 km
Eccentricity0.6552752
Inclination5.5542°
RAAN180.4673°
Arg. of periapsis58.1158°
True anomaly302.23013°
Mean anomaly349.5152°
Eccentric anomaly331.73734°
Mean motion0.81446 °/min
BSTAR0.012574
Orbital period442.01 mins
Loading maneuver chart data...
Loading historical data...
Loading historical data...
Loading historical data...
Loading historical data...
Loading historical data...
Loading historical data...
Loading historical data...
Other satellites on launch #13 in the year 2020 (2020-02-18 UTC)

ARIANE 5 DEB (SYLDA) Visibility forecast

Observer location: undefined°, undefined

Span
Click to sort rows by Start time (UTC) header in descending order
Start Az.
Max El. time (UTC)
Max El. Az.
Max El.
End time (UTC)
End Az.
302 mins2024-12-26 21:39:44.678Z184.526° SSW2024-12-26 21:52:44.678Z149.258° SSE17.619°2024-12-27 02:41:44.678Z120.103° SE
8 mins2024-12-27 11:28:44.678Z219.59° SW2024-12-27 11:32:44.678Z214.796° SW10.253°2024-12-27 11:36:44.678Z208.613° SW
|